[[{"header":{"parameterUnit":"m.s-1","parameterCategory":1,"la1":30.2991,"la2":30.254,"lo1":-89.0895,"lo2":-89.0444,"dy":0.0017,"dx":0.0017,"nx":28,"ny":28,"refTime":"2025-09-15T09:00:00:Z","depth":0,"parameterNumber":2,"parameterNumberName":"U-component_of_WINDS"},"data":[0,0,0,0,0,0,0,0,0,0,0,0,0,0,0,0,0,0,0,0,0,0,0,0,0,0,0,0,0,0,0,0,0,0,0,0,0,0,0,0,0,0,0,0,0,0,0,0,0,0,0,0,0,0,0,0,0,0,0.8063,0.8063,0,0.7993,0.7992,0.7992,0.7912,0.7911,0.791,0.7909,0.7834,0.7833,0.7833,0,0,0,0,0,0,0,0,0,0,0,0,0,0.8127,0.8127,0.8063,0.8063,0.8062,0.7993,0.7992,0.7991,0.7912,0.7911,0.791,0.7908,0.7835,0.7834,0.7833,0,0,0,0,0,0,0,0,0,0,0,0,0,0.8083,0.8126,0.8064,0.8014,0.8009,0.7993,0.7992,0.7991,0.7913,0.7911,0.7909,0.7908,0.7835,0.7834,0.7832,0.7859,0,0,0.7828,0.7828,0,0,0,0,0,0,0,0,0.8085,0.808,0.8022,0.8018,0.8012,0.796,0.7987,0.7947,0.7913,0.7949,0.7909,0.7907,0.7877,0.7872,0.7863,0.7856,0.7852,0.7828,0.7827,0.7827,0.7826,0,0,0,0,0,0,0,0.8088,0.8083,0.8036,0.8022,0.8015,0.7995,0.7987,0.7979,0.7924,0.7946,0.794,0.7933,0.7874,0.7864,0.7861,0.7851,0.7828,0.7827,0.7826,0.7826,0.7863,0.7864,0,0,0,0,0,0,0.8099,0.8086,0.8038,0.8033,0.8045,0.7995,0.7986,0.7978,0.7924,0.7914,0.7935,0.793,0.7868,0.7862,0.7858,0.7886,0.7827,0.7826,0.7825,0.7861,0.7863,0.7865,0,0,0,0,0,0,0.8101,0.8096,0.8041,0.8058,0.805,0.7996,0.7988,0.7978,0.7968,0.7915,0.7905,0.7935,0.7866,0.786,0.786,0.7882,0.7825,0.7824,0.7859,0.7861,0.7864,0.7942,0,0,0,0,0,0,0.8103,0.8097,0.8107,0.8059,0.8049,0.8045,0.7989,0.7978,0.7966,0.7959,0.7913,0.7903,0.7864,0.7862,0.7858,0.7879,0.7823,0.7856,0.786,0.7863,0.7938,0.7947,0.7956,0,0,0,0,0,0.8106,0.8131,0.8108,0.8102,0.8061,0.8046,0.804,0.7995,0.7968,0.7978,0.7944,0.7905,0.788,0.7863,0.7858,0.7879,0.7855,0.7859,0.7863,0.7933,0.7946,0.7956,0,0,0,0,0,0,0.8182,0.8124,0.8097,0.8108,0.8083,0.8033,0.8043,0.8009,0.799,0.7984,0.7928,0.7919,0.7925,0.7902,0.7883,0.7902,0.7862,0.7865,0.7917,0.7928,0.7937,0.7943,0.7822,0,0,0,0,0,0.8201,0.8194,0.8143,0.8158,0.8147,0.8098,0.8089,0.8057,0.8028,0.8017,0.7983,0.7955,0.7941,0.7933,0.7917,0.7934,0.7922,0.7945,0.7955,0.7962,0.7966,0.7973,0.7983,0.7878,0.7878,0.7878,0,0,0.8238,0.8205,0.8205,0.8172,0.8149,0.8143,0.8089,0.8085,0.808,0.8016,0.8014,0.7988,0.7954,0.7963,0.7965,0.7943,0.7993,0.7968,0.7974,0.7973,0.7979,0.7989,0.7997,0.7881,0.788,0.788,0,0,0.8303,0.8278,0.8288,0.8266,0.8231,0.8198,0.8201,0.8156,0.8137,0.8134,0.8086,0.8079,0.8056,0.8034,0.802,0.8078,0.8041,0.8074,0.8122,0.813,0.8138,0.8145,0.8166,0.8175,0.8078,0.8078,0.8078,0,0.8354,0.8345,0.8297,0.8296,0.8284,0.8226,0.8235,0.8216,0.8178,0.817,0.8146,0.8117,0.809,0.8093,0.8107,0.8097,0.8098,0.8079,0.8141,0.8147,0.8153,0.8173,0.8181,0.8082,0.8081,0.8081,0.8081,0,0.8409,0.8403,0.8415,0.8381,0.8369,0.8374,0.8326,0.832,0.8289,0.8258,0.8257,0.8222,0.8199,0.8197,0.8166,0.8195,0.8183,0.8151,0.811,0.8168,0.8186,0.8193,0.8088,0.8087,0.8085,0.8084,0,0,0.8521,0.8461,0.8466,0.845,0.8408,0.8402,0.8404,0.8382,0.8378,0.8354,0.8354,0.8336,0.8306,0.829,0.8256,0.8263,0.8312,0.823,0.8228,0.8247,0.8343,0.8368,0.8378,0.8287,0.8288,0.8289,0.8346,0,0.8579,0.858,0.8537,0.8549,0.8544,0.8489,0.849,0.8464,0.8436,0.8426,0.8394,0.8383,0.8344,0.8335,0.8339,0.8305,0.833,0.83,0.8287,0.8287,0.8298,0.8387,0.8413,0.8468,0.8353,0.8354,0.8355,0,0.8648,0.8629,0.8641,0.8599,0.8595,0.8597,0.8574,0.8566,0.8535,0.8514,0.8497,0.8458,0.8456,0.8417,0.8414,0.8394,0.8386,0.8369,0.837,0.8367,0.8325,0.8387,0.8485,0.8494,0.8365,0.8364,0.8363,0,0.8729,0.8707,0.8711,0.8699,0.865,0.8653,0.8633,0.86,0.859,0.8569,0.8562,0.8541,0.853,0.8514,0.8471,0.8446,0.8473,0.843,0.8455,0.8457,0.8464,0.8464,0.8562,0.8458,0.8457,0.8457,0.8457,0,0.88,0.881,0.8747,0.875,0.8759,0.871,0.872,0.8694,0.8666,0.8662,0.8613,0.8611,0.8553,0.8544,0.851,0.8513,0.8508,0.8491,0.8482,0.8495,0.8498,0.849,0.8485,0.8459,0.8459,0.8458,0.8458,0,0.8893,0.8851,0.8853,0.8806,0.8795,0.8804,0.8764,0.8765,0.8733,0.873,0.8726,0.8677,0.8663,0.8619,0.8594,0.8571,0.8585,0.8567,0.8596,0.859,0.8618,0.8617,0.8715,0.8726,0.8614,0.8615,0.8616,0,0.8941,0.8947,0.8902,0.8897,0.8879,0.8871,0.886,0.8811,0.8802,0.8769,0.8773,0.8756,0.874,0.8722,0.8684,0.8665,0.8646,0.8682,0.8643,0.8657,0.8648,0.8648,0.8649,0.8691,0.8692,0.8693,0.8694,0,0.9031,0.901,0.8997,0.8978,0.8968,0.895,0.8929,0.8927,0.8872,0.8865,0.8851,0.8839,0.8815,0.8799,0.8774,0.8751,0.8714,0.8707,0.8712,0.8727,0.8744,0.8736,0.862,0.8705,0.8704,0.8703,0.8703,0.8702,0.9103,0.9106,0.9076,0.9063,0.9043,0.9025,0.9023,0.8992,0.8981,0.8958,0.8929,0.892,0.8888,0.8851,0.8832,0.8823,0.8803,0.881,0.8812,0.8815,0.8822,0.8745,0.8818,0.8818,0.8818,0.8817,0.8817,0,0.9191,0.9169,0.9158,0.9131,0.9122,0.9088,0.9063,0.9057,0.905,0.9024,0.901,0.8995,0.8979,0.894,0.8921,0.8921,0.8904,0.8918,0.8918,0.8913,0.8841,0.8839,0.8932,0.8932,0.8932,0.8932,0.8932,0.8932,0.9236,0.924,0.9216,0.921,0.9187,0.9178,0.9167,0.915,0.913,0.9115,0.9103,0.9077,0.9046,0.9024,0.9009,0.8997,0.8993,0.9013,0.8996,0.8929,0.8918,0.8908,0.8906,0.9012,0.9012,0.9069,0.907,0.907]},{"header":{"parameterUnit":"m.s-1","parameterCategory":1,"la1":30.2991,"la2":30.254,"lo1":-89.0895,"lo2":-89.0444,"dy":0.0017,"dx":0.0017,"nx":28,"ny":28,"refTime":"2025-09-15T09:00:00:Z","depth":0,"parameterNumber":3,"parameterNumberName":"V-component_of_WINDS"},"data":[0,0,0,0,0,0,0,0,0,0,0,0,0,0,0,0,0,0,0,0,0,0,0,0,0,0,0,0,0,0,0,0,0,0,0,0,0,0,0,0,0,0,0,0,0,0,0,0,0,0,0,0,0,0,0,0,0,0,-2.701,-2.7011,0,-2.7094,-2.7095,-2.7096,-2.7072,-2.7071,-2.7069,-2.7067,-2.7151,-2.7155,-2.7159,0,0,0,0,0,0,0,0,0,0,0,0,0,-2.6829,-2.6832,-2.701,-2.7011,-2.7012,-2.7094,-2.7095,-2.7096,-2.7073,-2.707,-2.7068,-2.7066,-2.715,-2.7154,-2.7159,0,0,0,0,0,0,0,0,0,0,0,0,0,-2.6909,-2.6833,-2.701,-2.701,-2.7011,-2.7094,-2.7095,-2.7096,-2.7073,-2.707,-2.7068,-2.7065,-2.7148,-2.7154,-2.716,-2.7246,0,0,-2.7177,-2.7179,0,0,0,0,0,0,0,0,-2.6905,-2.6916,-2.7009,-2.7011,-2.7012,-2.707,-2.7062,-2.7146,-2.7074,-2.7049,-2.7067,-2.7064,-2.7126,-2.7133,-2.7155,-2.725,-2.7253,-2.7178,-2.7181,-2.7183,-2.7185,0,0,0,0,0,0,0,-2.6899,-2.6912,-2.7043,-2.7011,-2.7012,-2.7006,-2.7015,-2.7078,-2.7101,-2.7051,-2.705,-2.706,-2.7126,-2.7149,-2.7156,-2.7255,-2.7177,-2.7182,-2.7186,-2.7188,-2.7425,-2.7428,0,0,0,0,0,0,-2.6893,-2.6908,-2.7041,-2.7046,-2.6951,-2.7011,-2.7021,-2.7054,-2.71,-2.7105,-2.7062,-2.7059,-2.7141,-2.715,-2.7159,-2.7264,-2.7183,-2.7189,-2.7192,-2.7422,-2.7426,-2.7429,0,0,0,0,0,0,-2.6889,-2.6905,-2.7037,-2.6977,-2.6993,-2.7017,-2.7054,-2.7057,-2.708,-2.7109,-2.7112,-2.7082,-2.7139,-2.7151,-2.7225,-2.7266,-2.7191,-2.7197,-2.7419,-2.7424,-2.7428,-2.7474,0,0,0,0,0,0,-2.6884,-2.6904,-2.6937,-2.6977,-2.6996,-2.7102,-2.7057,-2.706,-2.709,-2.7086,-2.7128,-2.7132,-2.7138,-2.7216,-2.7231,-2.7273,-2.7201,-2.7415,-2.7421,-2.7426,-2.7468,-2.7479,-2.7488,0,0,0,0,0,-2.6878,-2.6946,-2.6939,-2.6955,-2.7039,-2.7104,-2.7115,-2.7121,-2.7093,-2.7127,-2.7146,-2.7131,-2.726,-2.7224,-2.724,-2.7285,-2.7413,-2.7419,-2.7426,-2.7464,-2.7477,-2.7488,0,0,0,0,0,0,-2.691,-2.6952,-2.6944,-2.7028,-2.7063,-2.71,-2.7143,-2.7134,-2.7177,-2.7172,-2.7177,-2.7186,-2.7262,-2.728,-2.724,-2.7371,-2.7332,-2.7342,-2.7356,-2.7368,-2.7378,-2.7372,-2.7206,0,0,0,0,0,-2.6927,-2.6977,-2.7011,-2.7081,-2.71,-2.7118,-2.7147,-2.7149,-2.7185,-2.7199,-2.7223,-2.7258,-2.7307,-2.7338,-2.7385,-2.7471,-2.748,-2.751,-2.7519,-2.7527,-2.7536,-2.7583,-2.7597,-2.745,-2.745,-2.745,0,0,-2.6962,-2.6991,-2.7022,-2.7089,-2.7116,-2.7168,-2.7131,-2.7187,-2.7225,-2.7208,-2.7279,-2.7298,-2.7337,-2.7418,-2.7454,-2.7436,-2.7578,-2.7535,-2.7541,-2.7546,-2.7591,-2.7605,-2.7617,-2.7455,-2.7454,-2.7453,0,0,-2.7053,-2.708,-2.7142,-2.717,-2.7212,-2.7225,-2.724,-2.7279,-2.7291,-2.7362,-2.735,-2.7396,-2.7479,-2.7508,-2.7533,-2.7636,-2.7624,-2.7651,-2.7702,-2.7748,-2.7759,-2.777,-2.7807,-2.782,-2.7659,-2.7659,-2.7659,0,-2.7091,-2.7169,-2.7175,-2.7233,-2.7262,-2.7249,-2.7312,-2.7339,-2.7394,-2.7414,-2.7393,-2.7498,-2.7523,-2.7611,-2.7636,-2.7657,-2.7674,-2.7646,-2.7757,-2.7768,-2.7778,-2.7813,-2.7827,-2.7662,-2.7662,-2.7662,-2.7661,0,-2.7215,-2.7269,-2.7314,-2.7368,-2.7403,-2.7463,-2.7477,-2.7511,-2.751,-2.7524,-2.7598,-2.7628,-2.768,-2.7701,-2.77,-2.7789,-2.7776,-2.7756,-2.7717,-2.7794,-2.7828,-2.7841,-2.7667,-2.7666,-2.7665,-2.7664,0,0,-2.7328,-2.7385,-2.7401,-2.7426,-2.7472,-2.7514,-2.7573,-2.7625,-2.7654,-2.7692,-2.7742,-2.7813,-2.7796,-2.7825,-2.7827,-2.7867,-2.7947,-2.7843,-2.7844,-2.7861,-2.8047,-2.8062,-2.8078,-2.794,-2.7942,-2.7944,-2.8044,0,-2.7423,-2.7528,-2.7535,-2.763,-2.768,-2.7669,-2.7721,-2.7754,-2.7769,-2.7814,-2.783,-2.7881,-2.7853,-2.7871,-2.791,-2.7929,-2.7985,-2.7922,-2.7986,-2.7988,-2.7977,-2.8095,-2.8111,-2.8204,-2.8057,-2.8059,-2.8061,0,-2.7548,-2.7591,-2.7691,-2.773,-2.7752,-2.7798,-2.7847,-2.789,-2.7927,-2.7935,-2.7968,-2.7965,-2.8026,-2.7985,-2.8068,-2.8026,-2.8052,-2.8065,-2.8069,-2.8075,-2.8029,-2.8105,-2.8233,-2.8247,-2.8081,-2.808,-2.8078,0,-2.7621,-2.7704,-2.7774,-2.7796,-2.7843,-2.7876,-2.7897,-2.7933,-2.7964,-2.8006,-2.8026,-2.8074,-2.8101,-2.8138,-2.8148,-2.8117,-2.8232,-2.8191,-2.824,-2.824,-2.8265,-2.8263,-2.84,-2.8282,-2.8281,-2.8281,-2.8281,0,-2.7726,-2.7788,-2.7808,-2.7852,-2.7921,-2.7928,-2.7996,-2.8015,-2.8047,-2.8094,-2.8086,-2.813,-2.814,-2.8186,-2.8194,-2.8263,-2.8275,-2.8283,-2.8284,-2.8284,-2.8283,-2.8301,-2.8295,-2.8285,-2.8284,-2.8283,-2.8283,0,-2.782,-2.7835,-2.7912,-2.7951,-2.7962,-2.8011,-2.8044,-2.8086,-2.81,-2.816,-2.8174,-2.8197,-2.8251,-2.8264,-2.8328,-2.8333,-2.8414,-2.8409,-2.8402,-2.8402,-2.845,-2.8445,-2.8603,-2.8624,-2.8492,-2.8493,-2.8494,0,-2.7886,-2.7934,-2.7978,-2.8009,-2.8032,-2.8082,-2.8114,-2.8123,-2.8157,-2.8204,-2.824,-2.8293,-2.8336,-2.8423,-2.8444,-2.8493,-2.849,-2.8542,-2.8497,-2.8495,-2.8491,-2.8488,-2.8493,-2.855,-2.8552,-2.8553,-2.8554,0,-2.8003,-2.8008,-2.8055,-2.8104,-2.8143,-2.8182,-2.822,-2.8245,-2.826,-2.8297,-2.8353,-2.8386,-2.8452,-2.8505,-2.8555,-2.8576,-2.8568,-2.8568,-2.8582,-2.8582,-2.8576,-2.858,-2.8425,-2.8564,-2.8563,-2.8562,-2.8562,-2.8561,-2.8085,-2.8127,-2.8165,-2.8217,-2.8246,-2.8282,-2.8323,-2.8343,-2.839,-2.8445,-2.8447,-2.8507,-2.8544,-2.861,-2.8634,-2.8681,-2.8665,-2.8685,-2.8691,-2.8696,-2.87,-2.8568,-2.869,-2.869,-2.869,-2.8689,-2.8689,0,-2.8202,-2.8226,-2.8274,-2.8327,-2.8368,-2.8357,-2.8398,-2.8433,-2.8486,-2.8522,-2.8565,-2.8629,-2.868,-2.8706,-2.8757,-2.879,-2.8787,-2.8803,-2.8801,-2.8806,-2.8711,-2.8694,-2.8804,-2.8804,-2.8804,-2.8804,-2.8804,-2.8804,-2.8267,-2.8338,-2.8348,-2.8433,-2.8456,-2.8516,-2.8541,-2.8573,-2.8602,-2.8674,-2.8717,-2.8734,-2.8765,-2.8819,-2.8865,-2.8872,-2.8891,-2.8909,-2.8913,-2.8824,-2.8812,-2.8801,-2.8785,-2.8913,-2.8913,-2.9004,-2.9005,-2.9006]}]]